[[{"header":{"parameterUnit":"m.s-1","parameterCategory":1,"la1":30.2991,"la2":30.254,"lo1":-89.0895,"lo2":-89.0444,"dy":0.0017,"dx":0.0017,"nx":28,"ny":28,"refTime":"2024-07-05T21:00:00:Z","depth":0,"parameterNumber":2,"parameterNumberName":"U-component_of_WINDS"},"data":[0,0,0,0,0,0,0,0,0,0,0,0,0,0,0,0,0,0,0,0,0,0,0,0,0,0,0,0,0,0,0,0,0,0,0,0,0,0,0,0,0,0,0,0,0,0,0,0,0,0,0,0,0,0,0,0,0,0,0.9791,0.9792,0,0.9858,0.9859,0.986,0.987,0.9869,0.9869,0.9868,0.9941,0.9943,0.9946,0,0,0,0,0,0,0,0,0,0,0,0,0,0.9676,0.9678,0.9791,0.9792,0.9793,0.9858,0.9859,0.986,0.987,0.9869,0.9869,0.9868,0.994,0.9943,0.9946,0,0,0,0,0,0,0,0,0,0,0,0,0,0.9733,0.9679,0.9791,0.9806,0.9808,0.9858,0.9859,0.986,0.987,0.9869,0.9868,0.9867,0.9939,0.9943,0.9947,0.9988,0,0,0.9958,0.996,0,0,0,0,0,0,0,0,0.973,0.9737,0.9803,0.9805,0.9807,0.9855,0.9845,0.9903,0.987,0.9847,0.9868,0.9867,0.9913,0.9919,0.9934,0.9992,0.9995,0.9958,0.9961,0.9962,0.9963,0,0,0,0,0,0,0,0.9726,0.9735,0.9818,0.9804,0.9806,0.981,0.9817,0.9856,0.9884,0.9849,0.9849,0.9857,0.9914,0.993,0.9936,0.9996,0.9958,0.9962,0.9964,0.9965,1.0092,1.0093,0,0,0,0,0,0,0.9719,0.9731,0.9816,0.982,0.9765,0.9813,0.9821,0.984,0.9884,0.989,0.9858,0.9857,0.9924,0.9931,0.9938,0.999,0.9962,0.9966,0.9968,1.009,1.0092,1.0093,0,0,0,0,0,0,0.9716,0.9726,0.9813,0.9776,0.9787,0.9816,0.9838,0.9842,0.9858,0.9891,0.9896,0.9868,0.9924,0.9933,0.9975,0.9993,0.9967,0.9971,1.0089,1.0091,1.0092,1.0094,0,0,0,0,0,0,0.9713,0.9725,0.974,0.9776,0.9789,0.9848,0.9839,0.9844,0.9864,0.9864,0.9902,0.9908,0.9924,0.997,0.9979,0.9998,0.9974,1.0088,1.009,1.0092,1.0093,1.0095,1.0098,0,0,0,0,0,0.9709,0.9739,0.9741,0.9751,0.9808,0.9849,0.9856,0.9873,0.9865,0.9881,0.9902,0.9907,0.9989,0.9974,0.9985,1.0004,1.0087,1.0089,1.0092,1.0091,1.0095,1.0098,0,0,0,0,0,0,0.9706,0.9744,0.9747,0.9789,0.9815,0.985,0.9871,0.9876,0.9906,0.9905,0.9926,0.9934,0.9976,0.9994,0.9977,1.0047,1.0038,1.0042,1.0034,1.0037,1.004,1.0035,0.9977,0,0,0,0,0,0.971,0.9739,0.9771,0.9805,0.9818,0.9842,0.986,0.9871,0.9899,0.9911,0.9935,0.9964,0.9997,1.0018,1.005,1.0095,1.0104,1.0114,1.0117,1.0119,1.0123,1.0149,1.0154,1.0101,1.0101,1.0101,0,0,0.972,0.9744,0.9761,0.9805,0.9827,0.9857,0.9852,0.9884,0.9907,0.9917,0.9958,0.9977,1.0011,1.0055,1.0075,1.0071,1.0139,1.0122,1.0123,1.0126,1.0152,1.0157,1.0161,1.0103,1.0102,1.0102,0,0,0.9752,0.9773,0.9804,0.9825,0.9857,0.9873,0.9881,0.9915,0.9927,0.9969,0.9977,1.0005,1.0061,1.0084,1.0104,1.0145,1.015,1.0155,1.0169,1.0194,1.0198,1.0202,1.0218,1.0223,1.0159,1.0159,1.0159,0,0.976,0.9804,0.9819,0.9851,0.9871,0.9879,0.9912,0.9932,0.9974,0.9988,0.9983,1.0052,1.0076,1.0126,1.0135,1.0151,1.0161,1.0151,1.0196,1.02,1.0204,1.0219,1.0225,1.0159,1.0159,1.0159,1.0159,0,0.9813,0.9844,0.9865,0.9903,0.9926,0.9958,0.9979,1.0,1.0008,1.0024,1.0067,1.0095,1.0133,1.0145,1.0154,1.0197,1.0193,1.0192,1.0183,1.0209,1.0224,1.0229,1.0159,1.0159,1.0159,1.0159,0,0,0.9846,0.9892,0.99,0.9917,0.9953,0.9978,1.0011,1.0046,1.0064,1.0093,1.0121,1.0168,1.0166,1.0188,1.02,1.0222,1.0253,1.0218,1.0219,1.0224,1.0303,1.0304,1.031,1.0257,1.0258,1.0259,1.03,0,0.9883,0.994,0.9955,1.0004,1.0033,1.0042,1.007,1.0096,1.0113,1.0141,1.016,1.0193,1.0188,1.0202,1.0223,1.0245,1.027,1.0242,1.0285,1.0286,1.0277,1.0318,1.0319,1.0357,1.0306,1.0307,1.0308,0,0.9934,0.9962,1.0014,1.0047,1.0059,1.0085,1.0119,1.0145,1.0175,1.0186,1.021,1.0219,1.0255,1.0243,1.0293,1.0274,1.0292,1.0305,1.0307,1.0313,1.0299,1.0325,1.037,1.0376,1.0316,1.0316,1.0315,0,0.9954,1.0005,1.0043,1.0058,1.0096,1.0114,1.0131,1.016,1.018,1.021,1.0224,1.0258,1.0277,1.0304,1.0323,1.0312,1.0371,1.0361,1.0382,1.0382,1.0395,1.0394,1.0444,1.0406,1.0405,1.0405,1.0405,0,0.9995,1.0026,1.0052,1.0075,1.0111,1.0128,1.0164,1.0181,1.0207,1.0235,1.0244,1.027,1.0293,1.0323,1.0338,1.0377,1.0386,1.0396,1.04,1.0396,1.0394,1.0409,1.0407,1.0407,1.0407,1.0406,1.0406,0,1.0023,1.0042,1.0083,1.0116,1.0125,1.015,1.0179,1.0203,1.0219,1.0254,1.0263,1.029,1.0325,1.0346,1.0391,1.0401,1.0445,1.0447,1.0434,1.0436,1.0457,1.0455,1.0518,1.0527,1.0482,1.0482,1.0483,0,1.0048,1.0073,1.0108,1.0126,1.0143,1.0173,1.0193,1.0211,1.0232,1.0268,1.0288,1.0323,1.0352,1.0409,1.0433,1.0467,1.0471,1.0491,1.0476,1.0471,1.0472,1.0471,1.0474,1.0494,1.0494,1.0494,1.0494,0,1.0091,1.0099,1.0127,1.0159,1.0183,1.0209,1.0235,1.025,1.0272,1.0296,1.0331,1.0354,1.0399,1.0434,1.0471,1.049,1.0497,1.0499,1.0505,1.0502,1.0493,1.0499,1.0442,1.0497,1.0497,1.0497,1.0497,1.0497,1.0119,1.0141,1.0169,1.02,1.0222,1.0246,1.0269,1.0288,1.0318,1.0355,1.0364,1.0401,1.0431,1.048,1.05,1.0531,1.0528,1.0537,1.054,1.0542,1.0543,1.0488,1.0537,1.0537,1.0537,1.0537,1.0537,0,1.0163,1.0181,1.0209,1.0245,1.027,1.0272,1.0301,1.0322,1.0355,1.0381,1.041,1.0451,1.0485,1.0511,1.0547,1.0566,1.057,1.0575,1.0574,1.0578,1.0544,1.0534,1.0571,1.0571,1.0571,1.0571,1.0571,1.0571,1.0188,1.0226,1.0237,1.0285,1.0304,1.0339,1.0356,1.0378,1.04,1.0444,1.0472,1.0489,1.0516,1.0553,1.0585,1.0592,1.0605,1.061,1.0617,1.0585,1.0581,1.0577,1.0569,1.0612,1.0612,1.065,1.065,1.065]},{"header":{"parameterUnit":"m.s-1","parameterCategory":1,"la1":30.2991,"la2":30.254,"lo1":-89.0895,"lo2":-89.0444,"dy":0.0017,"dx":0.0017,"nx":28,"ny":28,"refTime":"2024-07-05T21:00:00:Z","depth":0,"parameterNumber":3,"parameterNumberName":"V-component_of_WINDS"},"data":[0,0,0,0,0,0,0,0,0,0,0,0,0,0,0,0,0,0,0,0,0,0,0,0,0,0,0,0,0,0,0,0,0,0,0,0,0,0,0,0,0,0,0,0,0,0,0,0,0,0,0,0,0,0,0,0,0,0,1.7001,1.7002,0,1.705,1.7051,1.7051,1.7085,1.7086,1.7086,1.7086,1.7134,1.7135,1.7136,0,0,0,0,0,0,0,0,0,0,0,0,0,1.6933,1.6935,1.7001,1.7002,1.7002,1.705,1.7051,1.7051,1.7085,1.7086,1.7086,1.7086,1.7133,1.7134,1.7136,0,0,0,0,0,0,0,0,0,0,0,0,0,1.6971,1.6935,1.7001,1.7025,1.7028,1.705,1.7051,1.7051,1.7085,1.7086,1.7086,1.7086,1.7133,1.7134,1.7136,1.7137,0,0,1.714,1.7141,0,0,0,0,0,0,0,0,1.6968,1.6973,1.7021,1.7024,1.7027,1.7062,1.7044,1.708,1.7085,1.7063,1.7086,1.7087,1.7109,1.7113,1.7121,1.7139,1.7141,1.7141,1.7142,1.7142,1.7143,0,0,0,0,0,0,0,1.6966,1.6971,1.702,1.7022,1.7025,1.7032,1.7038,1.7051,1.7083,1.7065,1.7068,1.7073,1.7111,1.7119,1.7122,1.7142,1.7141,1.7142,1.7143,1.7143,1.7161,1.7161,0,0,0,0,0,0,1.696,1.6969,1.7019,1.7022,1.6998,1.7033,1.704,1.705,1.7083,1.7089,1.7073,1.7075,1.7117,1.7121,1.7124,1.7126,1.7142,1.7144,1.7144,1.7162,1.7161,1.7161,0,0,0,0,0,0,1.6958,1.6964,1.7017,1.6996,1.7003,1.7034,1.7046,1.7051,1.706,1.7089,1.7095,1.7076,1.7117,1.7122,1.7133,1.7128,1.7144,1.7146,1.7162,1.7161,1.7161,1.7131,0,0,0,0,0,0,1.6956,1.6963,1.6965,1.6996,1.7004,1.7026,1.7045,1.7052,1.7062,1.7065,1.7094,1.7099,1.7118,1.7131,1.7135,1.7131,1.7147,1.7163,1.7162,1.7161,1.7133,1.7129,1.7127,0,0,0,0,0,1.6954,1.6955,1.6965,1.6971,1.7007,1.7026,1.7031,1.7054,1.7062,1.7063,1.7082,1.7098,1.7128,1.7132,1.7136,1.7133,1.7163,1.7162,1.7161,1.7134,1.713,1.7127,0,0,0,0,0,0,1.6922,1.6959,1.6971,1.6982,1.7001,1.7032,1.7034,1.7049,1.7065,1.7067,1.7094,1.71,1.7108,1.7122,1.7125,1.7134,1.7148,1.7147,1.7125,1.7122,1.7119,1.7115,1.7148,0,0,0,0,0,1.6917,1.693,1.6961,1.6968,1.6976,1.7003,1.7013,1.7028,1.7048,1.7056,1.7076,1.7093,1.7107,1.7115,1.7129,1.7135,1.714,1.7134,1.7131,1.7129,1.7128,1.713,1.7127,1.7157,1.7157,1.7157,0,0,1.6905,1.6927,1.6934,1.6962,1.6978,1.6989,1.701,1.7022,1.703,1.7058,1.7069,1.7084,1.7105,1.7113,1.7118,1.7125,1.7121,1.7128,1.7125,1.7126,1.7129,1.7126,1.7123,1.7157,1.7157,1.7157,0,0,1.689,1.6909,1.6916,1.6931,1.6955,1.6973,1.6974,1.7003,1.7014,1.7026,1.7046,1.7056,1.7079,1.7093,1.7103,1.7091,1.7105,1.7094,1.7079,1.708,1.7078,1.7076,1.707,1.7067,1.7094,1.7094,1.7094,0,1.6873,1.6892,1.6917,1.6927,1.6938,1.6964,1.697,1.6983,1.701,1.7017,1.7025,1.7053,1.7069,1.708,1.7076,1.7084,1.7085,1.7091,1.7076,1.7075,1.7073,1.7067,1.7065,1.7092,1.7092,1.7093,1.7093,0,1.6869,1.6881,1.6884,1.6909,1.692,1.6928,1.6953,1.6961,1.6975,1.6991,1.7002,1.7023,1.704,1.7044,1.7059,1.7056,1.7059,1.7072,1.7085,1.7068,1.7063,1.7062,1.709,1.7091,1.7091,1.7091,0,0,1.6836,1.6874,1.6875,1.6885,1.6913,1.6923,1.693,1.6948,1.6954,1.6971,1.6977,1.6996,1.7006,1.7018,1.7034,1.7035,1.7021,1.7047,1.7047,1.704,1.7017,1.7007,1.7004,1.7031,1.7031,1.7031,1.7015,0,1.6824,1.6841,1.6863,1.6872,1.6882,1.6906,1.6912,1.6929,1.6944,1.6954,1.6971,1.6982,1.6997,1.7003,1.7006,1.7023,1.7017,1.7024,1.7036,1.7036,1.7029,1.7002,1.6992,1.6976,1.7013,1.7013,1.7013,0,1.6814,1.6829,1.6839,1.6863,1.6869,1.6874,1.6891,1.6901,1.692,1.693,1.6942,1.6959,1.6967,1.6979,1.6989,1.6994,1.7,1.7008,1.7008,1.7009,1.7023,1.7001,1.6972,1.6969,1.7011,1.7011,1.7011,0,1.6787,1.681,1.6819,1.6828,1.6857,1.686,1.6872,1.6891,1.6899,1.6914,1.6919,1.6934,1.6942,1.6952,1.6972,1.698,1.6979,1.6994,1.6987,1.6986,1.6985,1.6985,1.6955,1.6991,1.6991,1.6991,1.6991,0,1.6771,1.6776,1.6807,1.6812,1.6817,1.6841,1.6845,1.6859,1.6875,1.6882,1.6904,1.6909,1.6936,1.6944,1.6959,1.6964,1.6968,1.6976,1.6979,1.6973,1.6972,1.6976,1.6977,1.699,1.6991,1.6991,1.6991,0,1.6742,1.6764,1.6774,1.68,1.6807,1.6809,1.6831,1.6836,1.6851,1.686,1.6863,1.6887,1.6898,1.6919,1.6935,1.6946,1.6946,1.6954,1.694,1.6942,1.6933,1.6933,1.6904,1.69,1.694,1.694,1.6939,0,1.6731,1.6735,1.6761,1.6767,1.6778,1.6788,1.6796,1.6819,1.6827,1.6847,1.6849,1.6861,1.6872,1.6888,1.6906,1.6919,1.6926,1.6915,1.6928,1.692,1.6923,1.6922,1.6922,1.6911,1.6911,1.691,1.691,0,1.6707,1.6716,1.6728,1.6742,1.6752,1.6764,1.6778,1.6782,1.6807,1.6814,1.6826,1.6834,1.685,1.6862,1.6876,1.6888,1.6902,1.6906,1.6905,1.6897,1.6888,1.6891,1.693,1.6906,1.6907,1.6907,1.6907,1.6907,1.6685,1.6689,1.6707,1.6718,1.6731,1.6742,1.6747,1.6763,1.6773,1.6788,1.6801,1.681,1.6826,1.6847,1.6857,1.6864,1.6871,1.687,1.6869,1.6868,1.6865,1.6888,1.6867,1.6867,1.6867,1.6867,1.6867,0,1.6661,1.6673,1.6683,1.6701,1.6709,1.6723,1.6738,1.6744,1.6752,1.6766,1.6776,1.6787,1.6798,1.6816,1.6828,1.6829,1.6836,1.6832,1.6831,1.6833,1.6858,1.6858,1.6826,1.6826,1.6826,1.6826,1.6826,1.6826,1.6649,1.6655,1.6666,1.6678,1.669,1.6699,1.6706,1.6716,1.6727,1.6739,1.6748,1.676,1.6775,1.6788,1.6797,1.6802,1.6805,1.6797,1.6804,1.6828,1.6831,1.6835,1.6834,1.6798,1.6798,1.6778,1.6778,1.6778]}]]